www.pogodaiklimat.ru

Погода и климат >> Архив погоды >> Австрия >> Бад-Глайхенбер


ПОГОДА в Бад-Глайхенбере

  • Прогноз погоды в Бад-Глайхенбере
  • Монитор погоды в Бад-Глайхенбере

АРХИВ ПОГОДЫ в Бад-Глайхенбере

Время (UTC), дата Ветер
(напр.,м/с)
 
Видим.   Явления Облачность Т
(С)
Тd
(С)
f
(%)
Тe
(С)
Тes
(С)
Комфортность P
(гПа)
Po
(гПа)
Тmin
(С)
Tmax
(С)
R
(мм)
R24
(мм)
S
(см)
10 9.07 ЮВ 2 н/о н/о +20.7 +12.3 59 +24 +24 комфорт 1015.6 984.4
11 9.07 Ю 3 н/о н/о +20.8 +13.7 64 +24 +24 комфорт 1015.4 984.2
12 9.07 ЮВ 2 н/о н/о +22.2 +13.9 59 +25 +25 комфорт 1014.8 983.8
13 9.07 Ю 2 н/о н/о +21.9 +14.0 61 +25 +25 комфорт 1014.5 983.4
14 9.07 Ю 2 н/о н/о +21.2 +13.7 62 +24 +24 комфорт 1014.4 983.3
15 9.07 Ю 2 н/о в посл. час осадки н/о +20.3 +15.2 73 +24 +24 комфорт 1014.4 983.2 0.1
16 9.07 В 2 н/о н/о +20.5 +12.9 62 +23 +23 комфорт 1014.2 983.0 0.0
17 9.07 В 4 н/о н/о +18.2 +12.5 69 +18 +18 1014.2 982.7
18 9.07 В 3 н/о {осадки} н/о +18.0 +12.8 72 +18 +18 1014.2 982.7 +15.2 +23.0 0.1
19 9.07 В 2 н/о н/о +17.4 +12.7 74 +18 +18 1015.1 983.5 0.0
20 9.07 В 1 н/о н/о +17.2 +13.0 76 +18 +18 1016.0 984.4
21 9.07 В 2 н/о н/о +16.3 +13.5 83 +16 +16 1016.0 984.3 0.0
22 9.07 В 3 н/о н/о +14.8 +12.9 88 +14 +14 1016.1 984.2
23 9.07 В 3 н/о н/о +13.5 +12.2 92 +12 +12 1016.5 984.5
00 10.07 В 3 н/о н/о +12.8 +11.6 92 +11 +11 1016.5 984.4 0.0
01 10.07 В 4 н/о н/о +14.4 +9.4 72 +13 +13 1016.5 984.5
02 10.07 В 3 н/о н/о +14.1 +8.5 69 +13 +13 1016.5 984.5
03 10.07 В 3 н/о н/о +13.5 +8.1 70 +12 +12 1016.6 984.5
04 10.07 В 3 н/о н/о +13.6 +7.0 64 +13 +13 1016.8 984.7
05 10.07 В 3 н/о н/о +14.7 +6.8 59 +14 +14 1016.7 984.7
06 10.07 В 3 н/о н/о +15.4 +7.0 57 +15 +15 1017.0 985.1 +12.7 +18.0 0.0
07 10.07 СВ 3 н/о н/о +17.5 +8.2 54 +18 +18 1016.9 985.2
08 10.07 СВ 2 н/о н/о +18.6 +7.6 49 +20 +20 1016.8 985.3
09 10.07 В 4 н/о н/о +20.0 +8.6 48 +21 +21 комфорт 1016.6 985.2
10 10.07 СВ 2 н/о н/о +19.6 +7.2 45 +21 +21 комфорт 1016.3 984.9
11 10.07 В 2 н/о н/о +20.7 +6.8 40 +22 +22 комфорт 1015.9 984.6
12 10.07 В 3 н/о н/о +21.7 +7.2 39 +23 +23 комфорт 1015.5 984.3
13 10.07 В 4 н/о н/о +21.8 +6.7 38 +23 +23 комфорт 1015.2 984.0 0.0
14 10.07 В 4 н/о н/о +22.5 +6.7 36 +23 +23 комфорт 1014.7 983.6
15 10.07 В 2 н/о н/о +22.3 +6.2 35 +23 +23 комфорт 1014.5 983.4 0.0
16 10.07 В 2 н/о н/о +22.3 +6.8 37 +23 +23 комфорт 1014.3 983.2
17 10.07 В 2 н/о н/о +21.9 +5.4 34 +22 +22 комфорт 1014.5 983.4
18 10.07 В 2 н/о н/о +20.7 +6.9 41 +22 +22 комфорт 1015.0 983.7 +15.1 +22.8 0.0
19 10.07 СЗ 1 н/о н/о +17.4 +9.2 59 +18 +18 1015.7 984.1
20 10.07 В 2 н/о н/о +15.1 +9.7 70 +15 +15 1016.6 984.7
21 10.07 В 3 н/о н/о +13.5 +9.6 77 +12 +12 1017.2 985.1
22 10.07 В 2 н/о н/о +12.5 +9.3 81 +12 +12 1017.3 985.1
23 10.07 В 1 н/о н/о +11.2 +8.9 86 +11 +11 1017.2 984.8
00 11.07 В 1 н/о н/о +10.5 +8.6 88 +10 +10 1017.2 984.8
01 11.07 СВ 1 н/о н/о +9.9 +8.1 89 +9 +9 1017.0 984.5
02 11.07 В 1 н/о н/о +9.4 +7.9 90 +9 +9 1016.6 984.1
03 11.07 В 1 н/о н/о +9.1 +7.8 92 +8 +8 1016.6 984.0
04 11.07 СВ 1 н/о н/о +8.9 +7.6 92 +8 +8 1016.6 984.0
05 11.07 В 1 н/о н/о +11.9 +8.9 82 +12 +12 1016.2 984.0
06 11.07 В 3 н/о н/о +16.3 +8.8 61 +16 +16 1015.5 983.8 +8.9 +21.2
07 11.07 В 2 н/о н/о +20.1 +9.2 49 +22 +22 комфорт 1014.7 983.4
08 11.07 В 1 н/о н/о +21.8 +10.1 47 +23 +23 комфорт 1014.5 983.4
09 11.07 штиль 0 н/о н/о +24.0 +6.5 32 +24 +24 комфорт 1014.1 983.2 0.0
10 11.07 СВ 2 н/о н/о +23.7 +6.3 33 +24 +24 комфорт 1013.6 982.7
11 11.07 Ю 1 н/о н/о +24.1 +8.5 37 +25 +25 комфорт 1013.6 982.7
12 11.07 С 2 н/о н/о +23.9 +6.9 34 +24 +24 комфорт 1013.1 982.2 0.0
13 11.07 СВ 1 н/о н/о +25.2 +6.7 31 +25 +25 комфорт 1012.3 981.6
14 11.07 СВ 2 н/о н/о +25.8 +8.5 33 +26 +26 жарко 1012.0 981.4
15 11.07 СВ 2 н/о н/о +24.5 +7.3 33 +25 +25 комфорт 1012.1 981.3
16 11.07 С 2 н/о н/о +24.1 +6.8 33 +24 +24 комфорт 1011.7 980.9
17 11.07 СВ 1 н/о н/о +23.0 +9.1 41 +24 +24 комфорт 1011.9 981.0
18 11.07 СВ 1 н/о н/о +22.2 +10.2 46 +24 +24 комфорт 1012.1 981.1 +15.8 +26.1 0.0
19 11.07 СВ 1 н/о н/о +20.6 +11.9 57 +24 +24 комфорт 1012.4 981.2
20 11.07 СВ 2 н/о н/о +19.3 +11.5 61 +21 +21 комфорт 1012.9 981.6
21 11.07 СВ 1 н/о н/о +18.7 +11.9 65 +20 +20 1013.4 982.0
22 11.07 В 2 н/о н/о +18.2 +11.9 67 +19 +19 1013.7 982.2
23 11.07 С 1 н/о н/о +17.8 +12.5 71 +19 +19 1013.6 982.1
00 12.07 В 1 н/о н/о +17.9 +11.7 67 +19 +19 1013.5 982.0 0.0
01 12.07 В 2 н/о н/о +17.5 +12.3 72 +18 +18 1013.3 981.8
02 12.07 С 1 н/о н/о +17.2 +12.3 73 +18 +18 1012.9 981.4 0.0
03 12.07 В 2 н/о н/о +17.6 +10.8 64 +18 +18 1013.1 981.6 0.0
04 12.07 В 1 н/о н/о +17.0 +11.3 69 +18 +18 1013.4 981.8 0.0
05 12.07 СВ 1 н/о н/о +16.8 +12.5 76 +18 +18 1013.8 982.2 0.0
06 12.07 С 1 н/о осадки н/о +16.6 +13.4 81 +17 +17 1014.2 982.6 +16.5 +22.4 0.2
07 12.07 В 1 н/о осадки н/о +16.5 +14.6 89 +17 +17 1014.5 982.9 0.8
08 12.07 штиль 0 н/о в посл. час осадки н/о +17.9 +14.1 78 +18 +18 1014.0 982.5 0.1
09 12.07 В 2 н/о {осадки} н/о +19.2 +13.2 68 +21 +21 комфорт 1013.8 982.5 0.9
10 12.07 В 2 н/о н/о +20.9 +13.3 62 +24 +24 комфорт 1013.5 982.4 0.0
11 12.07 Ю 2 н/о н/о +22.5 +12.4 53 +25 +25 комфорт 1012.9 981.9 0.0
12 12.07 ЮВ 3 н/о {осадки} н/о +24.0 +12.2 48 +26 +26 жарко 1012.0 981.2 0.9
13 12.07 ЮВ 2 н/о н/о +24.4 +12.5 47 +26 +26 жарко 1011.4 980.7
14 12.07 ЮВ 1 н/о н/о +25.1 +11.3 42 +26 +26 жарко 1010.9 980.2
15 12.07 В 1 н/о н/о +24.8 +11.7 44 +26 +26 жарко 1010.6 979.9
16 12.07 ЮВ 2 н/о н/о +23.7 +12.6 50 +26 +26 жарко 1010.1 979.3
17 12.07 В 2 н/о осадки н/о +17.5 +15.1 86 +18 +18 1011.5 980.1 3
18 12.07 Ю 2 н/о в посл. час осадки н/о +16.8 +15.0 89 +17 +17 1011.8 980.3 +16.1 +25.7 4
19 12.07 В 3 н/о н/о +16.0 +14.7 92 +15 +15 1012.7 981.1
20 12.07 В 1 н/о н/о +15.6 +14.6 94 +16 +16 1013.1 981.4
21 12.07 В 3 н/о н/о +15.8 +14.8 94 +15 +15 1013.0 981.3 0.0
22 12.07 В 3 н/о н/о +15.7 +14.8 94 +15 +15 1012.6 980.9 0.0
23 12.07 В 3 н/о н/о +15.5 +14.6 94 +15 +15 1012.6 980.9
00 13.07 В 3 н/о н/о +15.4 +14.5 94 +15 +15 1012.0 980.3 0.0
01 13.07 В 2 н/о н/о +15.1 +14.3 95 +15 +15 1011.5 979.8
02 13.07 В 2 н/о н/о +14.8 +14.1 96 +14 +14 1011.4 979.7
03 13.07 В 3 н/о н/о +14.9 +14.2 96 +14 +14 1011.0 979.3 0.0
04 13.07 СВ 1 н/о в посл. час осадки н/о +14.9 +14.2 96 +15 +15 1011.0 979.3 0.2
05 13.07 В 3 н/о н/о +15.5 +14.7 95 +15 +15 1011.1 979.5
06 13.07 В 3 н/о {осадки} н/о +17.0 +15.3 90 +17 +17 1011.1 979.6 +14.8 +17.2 0.2
07 13.07 В 2 н/о н/о +19.7 +15.2 75 +22 +22 комфорт 1011.0 979.8 0.0
08 13.07 В 4 н/о н/о +20.0 +13.4 66 +22 +22 комфорт 1011.0 979.8
09 13.07 В 3 н/о н/о +21.5 +14.0 62 +24 +24 комфорт 1011.2 980.2 0.0
10 13.07 СВ 2 н/о осадки н/о +17.5 +13.6 78 +18 +18 1012.2 980.7 1
11 13.07 ЮВ 1 н/о в посл. час осадки н/о +15.5 +14.0 91 +16 +16 1012.5 980.8 4
12 13.07 В 2 н/о в посл. час осадки {ливн. осадки} н/о +15.8 +14.2 90 +16 +16 1012.7 981.0 6
14 13.07 Ю 2 н/о н/о +19.3 +16.3 83 +22 +22 комфорт 1011.1 979.9
15 13.07 ЮВ 1 н/о {осадки} н/о +20.1 +15.6 75 +24 +24 комфорт 1011.1 980.0 0.0
17 13.07 СВ 1 н/о н/о +19.1 +15.6 80 +22 +22 комфорт 1011.5 980.3
18 13.07 СВ 1 н/о {осадки} н/о +18.1 +14.3 78 +19 +19 1011.7 980.3 +15.4 +22.0 6
19 13.07 В 2 н/о н/о +16.7 +13.2 80 +17 +17 1012.6 981.0
20 13.07 В 3 н/о н/о +15.2 +12.8 86 +14 +14 1013.1 981.4
21 13.07 В 3 н/о н/о +14.3 +12.4 88 +13 +13 1013.5 981.6
22 13.07 В 3 н/о н/о +14.2 +12.5 90 +13 +13 1013.7 981.8
23 13.07 В 3 н/о н/о +13.7 +12.3 91 +12 +12 1013.5 981.6
00 14.07 В 3 н/о н/о +14.2 +12.7 91 +13 +13 1013.2 981.3
01 14.07 В 3 н/о н/о +13.6 +12.3 92 +12 +12 1012.8 980.9
02 14.07 В 3 н/о н/о +12.7 +11.7 94 +11 +11 1012.7 980.7
03 14.07 СВ 2 н/о н/о +12.1 +11.0 93 +11 +11 1012.9 980.8
04 14.07 В 2 н/о н/о +11.6 +10.6 94 +10 +10 1013.4 981.2
05 14.07 В 2 н/о н/о +13.2 +11.4 89 +12 +12 1013.3 981.3
06 14.07 В 3 н/о н/о +17.7 +12.1 70 +18 +18 1013.0 981.5 +11.6 +18.3
07 14.07 В 2 н/о н/о +20.9 +12.3 58 +24 +24 комфорт 1012.7 981.6
08 14.07 С 2 н/о н/о +22.4 +11.1 49 +25 +25 комфорт 1012.8 981.8
09 14.07 С 3 н/о н/о +23.0 +10.2 44 +25 +25 комфорт 1012.5 981.6
10 14.07 В 4 н/о н/о +23.6 +10.6 44 +25 +25 комфорт 1012.2 981.3
11 14.07 С 2 н/о н/о +24.4 +9.9 40 +25 +25 комфорт 1012.0 981.2
12 14.07 В 4 н/о н/о +24.4 +8.8 37 +25 +25 комфорт 1011.7 980.9
13 14.07 СВ 2 н/о н/о +24.9 +8.9 36 +25 +25 комфорт 1011.2 980.5
14 14.07 В 4 н/о н/о +24.9 +9.2 37 +26 +26 жарко 1011.1 980.4
15 14.07 СВ 1 н/о н/о +24.6 +9.9 39 +25 +25 комфорт 1010.8 980.1
16 14.07 СВ 2 н/о н/о +24.4 +9.3 38 +25 +25 комфорт 1011.1 980.3
17 14.07 СВ 2 н/о н/о +21.7 +10.7 50 +24 +24 комфорт 1012.0 981.0
18 14.07 В 1 н/о н/о +20.3 +11.1 55 +23 +23 комфорт 1012.4 981.2 +17.1 +25.9
19 14.07 В 1 н/о н/о +19.0 +11.1 60 +21 +21 комфорт 1012.7 981.4
20 14.07 ЮВ 3 н/о н/о +17.7 +11.9 69 +18 +18 1013.3 981.8
21 14.07 В 1 н/о н/о +16.7 +12.0 74 +18 +18 1013.7 982.1
22 14.07 В 3 н/о н/о +15.7 +12.1 79 +15 +15 1014.2 982.5
23 14.07 В 2 н/о н/о +14.3 +12.0 86 +14 +14 1014.5 982.6
00 15.07 В 3 н/о н/о +13.4 +11.5 88 +12 +12 1014.6 982.6
01 15.07 В 2 н/о н/о +13.0 +11.1 88 +12 +12 1014.2 982.2
02 15.07 В 2 н/о н/о +12.7 +11.2 91 +12 +12 1014.0 981.9
03 15.07 СВ 2 н/о н/о +11.8 +10.5 92 +11 +11 1014.3 982.1
04 15.07 В 2 н/о н/о +11.6 +10.4 92 +10 +10 1014.5 982.3
05 15.07 В 2 н/о н/о +13.6 +11.2 85 +13 +13 1014.4 982.4
06 15.07 В 3 н/о н/о +18.0 +12.3 69 +18 +18 1014.2 982.7 +11.4 +20.4
07 15.07 СВ 2 н/о н/о +20.7 +11.3 55 +23 +23 комфорт 1013.7 982.5
08 15.07 СВ 3 н/о н/о +21.8 +10.4 48 +24 +24 комфорт 1013.5 982.4
09 15.07 В 3 н/о н/о +22.2 +8.1 40 +23 +23 комфорт 1013.4 982.3
10 15.07 В 3 н/о н/о +23.3 +9.3 41 +25 +25 комфорт 1013.3 982.4
11 15.07 В 3 н/о н/о +23.1 +8.3 39 +24 +24 комфорт 1013.4 982.4
12 15.07 В 3 н/о н/о +23.8 +8.5 38 +24 +24 комфорт 1013.0 982.1
13 15.07 В 3 н/о н/о +24.2 +7.0 33 +24 +24 комфорт 1012.7 981.9
14 15.07 В 3 н/о н/о +23.3 +7.8 37 +24 +24 комфорт 1013.0 982.1
15 15.07 В 4 н/о н/о +23.4 +8.5 39 +25 +25 комфорт 1012.9 982.0
16 15.07 СВ 3 н/о н/о +23.9 +7.5 35 +24 +24 комфорт 1012.7 981.8
17 15.07 В 3 н/о н/о +23.7 +7.9 36 +24 +24 комфорт 1012.5 981.6
18 15.07 В 2 н/о н/о +21.8 +9.9 47 +23 +23 комфорт 1013.1 982.0 +17.5 +24.6
19 15.07 СВ 1 н/о н/о +18.5 +11.3 63 +20 +20 1013.6 982.2
20 15.07 В 2 н/о н/о +15.9 +11.1 73 +16 +16 1014.6 982.9
21 15.07 В 3 н/о н/о +14.5 +10.6 77 +14 +14 1015.2 983.3
22 15.07 В 3 н/о н/о +13.6 +10.3 80 +12 +12 1015.4 983.4
23 15.07 В 3 н/о н/о +13.1 +10.2 83 +12 +12 1015.5 983.4
00 16.07 В 2 н/о н/о +12.3 +9.9 85 +11 +11 1015.6 983.4
01 16.07 В 2 н/о н/о +11.9 +10.0 88 +11 +11 1015.5 983.3
02 16.07 В 1 н/о н/о +11.2 +9.6 90 +11 +11 1015.6 983.3
03 16.07 В 2 н/о н/о +10.9 +9.4 90 +10 +10 1015.5 983.2
04 16.07 СВ 1 н/о н/о +10.7 +9.3 91 +10 +10 1015.6 983.2
05 16.07 В 2 н/о н/о +13.1 +10.4 84 +12 +12 1015.3 983.2
06 16.07 В 4 н/о н/о +17.0 +11.8 71 +17 +17 1014.9 983.3 +10.5 +22.3
07 16.07 В 4 н/о н/о +20.0 +13.3 65 +22 +22 комфорт 1014.7 983.4
08 16.07 В 4 н/о н/о +23.3 +11.2 46 +26 +26 жарко 1014.0 983.1 0.0
09 16.07 В 2 н/о н/о +25.1 +10.9 41 +26 +26 жарко 1013.8 983.0 0.0
10 16.07 СВ 2 н/о н/о +24.8 +9.7 38 +26 +26 жарко 1013.5 982.7

 

Местоположение метеостанции Бад-Глайхенбер (Австрия): широта 46.87 долгота 15.90 высота над уровнем моря 282 м.

В архиве по умолчанию представлена погода в Бад-Глайхенбере за последнюю неделю. Архивные данные за месяц целиком и за предыдущие месяцы, начиная с января 2011 года, Вы можете получить, выбрав интересующий диапазон дат из раскрывающегося списка и нажав кнопку "Ввод!".


*Определитесь, кто Вы:
робот инопланетянин человек

Внимание! Время в таблицах - всемирное. Для получения местного времени необходимо прибавить поправку, которая равна 1 ч.

Смотрите также архив погоды в соседних городах и на ближайших метеорологических станциях:

Погода в Фельбахе (Австрия) (9 км)
Погода в Бад-Радкерсбурге (Австрия) (22 км)
Погода в Лейбнице (Австрия) (29 км)
Погода в Сентготтхарде (Венгрия) (32 км)
Погода в Мурска-Соботе (Словения) (32 км)
Погода в Ласницхёэ (Австрия) (33 км)
Погода в Граце (Австрия) (39 км)
Погода в Граце университет (Австрия) (44 км)
Погода в Хартберге (Австрия) (46 км)
Погода в Санкт Радегунд бай Грац (Австрия) (46 км)

Пояснения к столбцам:

Ветер - указаны скорость ветра в м/с - средняя за 10 мин, порывы в срок и между сроками (в фигурных скобках) и направление, откуда дует ветер: С - северный, СВ - северо-восточный, В - восточный, ЮВ - юго-восточный, Ю - южный, ЮЗ - юго-западный, З - западный, СЗ - северо-западный.
Видимость - горизонтальная дальность видимости в метрах или километрах. При видимости от 1 до 10 км при отсутствии осадков обычно наблюдается дымка, при ухудшении видимости до 1 км и менее - туман. В сухую погоду видимость может ухудшаться дымом, пылью или мглою.
Явления - указаны атмосферные явления, наблюдавшиеся в срок или в последний час перед сроком; фигурными скобками обозначены явления, наблюдавшиеся между сроками (за 1-3 часа до срока); квадратными скобками обозначены град или гололедные отложения с указанием их диаметра в мм.
Облачность - указаны через наклонную черту общая и нижняя облачность в баллах и высота нижней границы облаков в метрах; квадратными скобками обозначены формы облаков: Ci - перистые, Cs - перисто-слоистые, Cc - перисто-кучевые, Ac - высококучевые, As - высокослоистые, Sc - слоисто-кучевые, Ns - слоисто-дождевые, Cu - кучевые, Cb - кучево-дождевые. Подробнее классификацию облаков см. в Атласе облаков (PDF).
T - Температура воздуха - температура, измеренная на высоте 2 м над землей.
Td - Температура точки росы - температура, при понижении до которой содержащийся в воздухе водяной пар достигнет насыщения.
f - Относительная влажность воздуха - влажноcть воздуха, измеренная на высоте 2 м над землей.
Te - Эффективная температура - температура, которую ощущает одетый по сезону человек в тени. Характеристика душности погоды. При расчете учитывается влияние влажности воздуха и скорости ветра на теплоощущения человека.
Tes - Эффективная температура на солнце - температура, которую ощущает человек, с поправкой на солнечный нагрев. Характеристика знойности погоды. Зависит от высоты солнца над горизонтом, облачности и скорости ветра. Ночью, в пасмурную погоду, а также при ветре 12 м/с и более поправка равна нулю.
P - Атмосферное давление - приведенное к уровню моря атмосферное давление.
Po - Атмосферное давление - измеренное на уровне метеостанции атмосферное давление.
Tmin - Минимальная температура - минимум температуры воздуха на высоте 2 м над землей.
Tmax - Максимальная температура - максимум температуры воздуха на высоте 2 м над землей.
R - Количество осадков - Количество выпавших осадков за период времени, мм. При наведении курсора мыши на число - период времени, за который выпало указанное количество осадков.
R24 - Количество осадков - Количество выпавших осадков за 24 часа, мм.
S - Снежный покров - Высота снежного покрова, см. При наведении курсора мыши на число - состояние снежного покрова и степень покрытия местности в баллах.